Regional Weather Roundup
Issued by NWS Newport/Morehead, NC

Current Version | Previous Version | Graphics & Text | Print | Product List | Glossary Off
Versions: 1 2 3 4 5 6 7 8 9 10 11 12 13 14 15 16 17 18 19 20 21 22 23 24 25 26 27 28 29 30 31 32 33 34 35 36 37 38 39 40 41 42 43 44 45 46 47 48 49 50

000
ASUS42 KMHX 181010
RWRMHX
WEATHER ROUNDUP FOR EASTERN NORTH CAROLINA
NATIONAL WEATHER SERVICE NEWPORT/MOREHEAD CITY NC
500 AM EST THU DEC 18 2014

NOTE: "FAIR" INDICATES FEW OR NO CLOUDS BELOW 12,000 FEET
WITH NO SIGNIFICANT WEATHER AND/OR OBSTRUCTIONS TO VISIBILITY

NCZ015>017-031-032-045>047-102-103-181100-
NORTH COAST

CITY           SKY/WX    TMP DP  RH WIND       PRES   REMARKS
EDENTON          N/A     37  32  83 N3        30.10R
ELIZABETH CITY CLEAR     42  31  64 N9        30.10R
KITTY HAWK     SUNNY     44  36  74 N8        30.07R
MANTEO         CLEAR     43  37  78 N7        30.08R

$$

NCZ045>047-081-094-103-104-181100-
CENTRAL COAST

CITY           SKY/WX    TMP DP  RH WIND       PRES   REMARKS
FRISCO         PTCLDY    46  37  71 N8        30.07R
SWANQUARTER      N/A     41 N/A N/A NW3       30.06R

$$

NCZ095-097-098-100-101-181100-
SOUTHERN COAST

CITY           SKY/WX    TMP DP  RH WIND       PRES   REMARKS
BEAUFORT       MOCLDY    45  39  79 N9        30.10R
CEDAR ISLAND     N/A     48 N/A N/A NW14      30.12S
JACKSONVILLE   PTCLDY    41  35  79 N8        30.11R
PINEY ISLAND   NOT AVBL
WILMINGTON     CLEAR     37  37 100 N3        30.10R


$$

NCZ011>013-027>030-043-044-078>080-089-090>093-098-181100-
COASTAL PLAIN

CITY           SKY/WX    TMP DP  RH WIND       PRES   REMARKS
AHOSKIE        CLEAR     30  28  93 CALM      30.13R
CLINTON        CLEAR     39  37  92 N3        30.12R
ELIZABETHTOWN  CLEAR     38  37  97 CALM      30.11R
GOLDSBORO      CLEAR     37  36  98 CALM      30.10R
GREENVILLE     CLEAR     36  34  93 CALM      30.12S
HAVELOCK       NOT AVBL
KENANSVILLE    CLEAR     33  33 100 CALM      30.12R
KINSTON        CLEAR     37  33  84 CALM      30.11S
NEW BERN       PTCLDY    38  35  89 CALM      30.12R
RICHLANDS      CLEAR     34  30  86 CALM      30.12R
ROCKY MOUNT    CLEAR     37  28  70 N5        30.11S
WASHINGTON     CLEAR     39  32  77 N5        30.10S
WHITEVILLE     CLEAR     35  33  94 CALM      30.09S

$$

AMZ130-135-150-152-154-156-158-170-250-252-270-ANZ085-086-088-633-658-670-181100-
MARINE OBSERVATIONS

STATION/POSITION TIME  TEMP    WIND        PRES    WAVE   SWELL
                       AIR SEA DIR/SP/G            HT/PER HT/PER
                 (UTC) (F)     (DEG/KT/KT) (MB)    (FT/S) (FT/S)
CHESAPEAKE LIGHT 0900   42     350/ 21/ 23 1018.6
64 E VA BEACH    1000   46 54  340/ 19/ 21 1016.9    5/ 5   2/ 8
DUCK             1000   44 49  360/ 16/ 19 1017.6
2 E DUCK         1000      49                N/A     3/ 3
10 NE DUCK       1000      51                N/A     3/ 4
OREGON INLET     1000   45 51  350/ 11/ 14 1018.2
13E OREGON INLT  1000      53                N/A     3/10
HATTERAS CG      1000   49 54  330/ 16/ 19 1018.6
DIAMOND BUOY     1000   53                 1017.8    3/ 4
17 S OCRACOKE    NOT AVBL
CAPE LOOKOUT     0900   51     320/ 11/ 13 1018.2
BEAUFORT LAB     1000   47 54  350/  9/ 11 1017.9
30 SE NEW RIVER  1000   55 60  330/ 14/ 17 1018.9    2/ 7   2/ 7
5 SE WRIGHTSVLE  NOT AVBL
225 S CAPE HAT   0922   69 72  260/ 12/ 14 1017.9    4/ 7   3/ 7
41 SE CHARLESTON 1000   60 73  280/  8/ 12 1018.5

$$


USA.gov is the U.S. government's official web portal to all federal, state and local government web resources and services.